Regional Weather Roundup
Issued by NWS Nashville, TN

Home | Current Version | Previous Version | Text Only | Print | Product List | Glossary On
Versions: 1 2 3 4 5 6 7 8 9 10 11 12 13 14 15 16 17 18 19 20 21 22 23 24 25 26 27 28 29 30 31 32 33 34 35 36 37 38 39 40 41 42 43 44 45 46 47 48 49 50
000
ASUS44 KOHX 082010
RWROHX
MIDDLE TENNESSEE HOURLY WEATHER ROUNDUP
NATIONAL WEATHER SERVICE NASHVILLE TN
200 PM CST MON FEB 08 2016

NOTE: "FAIR" INDICATES FEW OR NO CLOUDS BELOW 12,000 FEET WITH
NO SIGNIFICANT WEATHER AND/OR OBSTRUCTIONS TO VISIBILITY.

* THESE REPORTS ARE NOT UNDER NWS QUALITY CONTROL AND MAY NOT
  REPORT WEATHER SUCH AS PRECIPITATION AND FOG.


TNZ005>011-023>034-057-059-062>066-078-080-082100
...NORTHERN MIDDLE TENNESSEE...

CITY           SKY/WX    TMP DP  RH WIND       PRES   REMARKS
CLARKSVILLE    LGT SNOW  33  28  81 NW16G26   29.81R WCI  23
CROSSVILLE     CLOUDY    38  21  50 W18G25    29.71R WCI  28
DICKSON        CLOUDY    32  28  86 W10       29.80R WCI  24
LEBANON        CLOUDY    39  26  60 W9        29.75F WCI  33
LIVINGSTON     CLOUDY    34  30  85 W9        29.72R WCI  27
NASHVILLE      CLOUDY    42  23  46 W10       29.78S
PORTLAND       CLOUDY   N/A N/A N/A NW10      29.75R
ROCKWOOD       MOSUNNY   39  23  53 NW15      29.70R WCI  30
SMYRNA         CLOUDY    42  24  49 W13       29.80S
SPARTA         PTSUNNY   41  25  52 W8        29.73S
$$
TNZ056-058-060-061-075>077-079-093>097-082100
...SOUTHERN MIDDLE TENNESSEE...

CITY           SKY/WX    TMP DP  RH WIND       PRES   REMARKS
COLUMBIA       CLOUDY    37  30  75 W8        29.80R WCI  31
FAYETTEVILLE   MOSUNNY   43  23  45 W12       29.80S
LEWISBURG      CLOUDY    42  24  49 W9        29.80S
MCMINNVILLE    CLOUDY    39  25  56 W13       29.76S WCI  32
SHELBYVILLE    CLOUDY    43  25  49 W16       29.80S
TULLAHOMA      PTSUNNY   39  21  48 W9        29.78S WCI  33
WINCHESTER     PTSUNNY   41  23  48 W14       29.79S
$$


...KEY TO REMARKS...
VSB - VISIBILITY IN MILES
WCI - WIND CHILL INDEX
HX  - HEAT INDEX




USA.gov is the U.S. government's official web portal to all federal, state and local government web resources and services.